• In Deutschland
  • Länderverzeichnis
  • Für 7 Tage
  • Wassertemperatur
  • Satellitenkarten
  • Wetterkarte
  • Widgets
  • user-avatar
    Anmelden

    Stündliche Wetter Cairns

    Heute, 26 Juni, Montag

    Zeit Temperatur Niederschläge Wind Luftdruck Luftfeuchtigkeit
    00:00 +20°C° 0,1 mm 4 m/S 762 mmHg 95%
    01:00 +20°C° 0,1 mm 4 m/S 762 mmHg 95%
    02:00 +20°C° 0 mm 4 m/S 761 mmHg 95%
    03:00 +20°C° 0 mm 4 m/S 761 mmHg 95%
    04:00 +20°C° 0 mm 4 m/S 761 mmHg 94%
    05:00 +20°C° 0 mm 4 m/S 761 mmHg 94%
    06:00 +20°C° 0 mm 4 m/S 761 mmHg 94%
    07:00 +20°C° 0 mm 4 m/S 762 mmHg 95%
    08:00 +22°C° 0 mm 4 m/S 762 mmHg 87%
    09:00 +23°C° 0 mm 5 m/S 762 mmHg 79%
    10:00 +25°C° 0 mm 5 m/S 762 mmHg 73%
    11:00 +26°C° 0,1 mm 5 m/S 762 mmHg 73%
    12:00 +26°C° 0,1 mm 5 m/S 762 mmHg 73%
    13:00 +26°C° 0,1 mm 5 m/S 762 mmHg 73%
    14:00 +26°C° 0,2 mm 5 m/S 761 mmHg 75%
    15:00 +26°C° 0,2 mm 5 m/S 761 mmHg 77%
    16:00 +26°C° 0,2 mm 5 m/S 761 mmHg 78%
    17:00 +25°C° 0,2 mm 5 m/S 761 mmHg 83%
    18:00 +23°C° 0,2 mm 5 m/S 762 mmHg 88%
    19:00 +22°C° 0,2 mm 5 m/S 762 mmHg 93%
    20:00 +22°C° 0,1 mm 5 m/S 762 mmHg 93%
    21:00 +22°C° 0,1 mm 5 m/S 762 mmHg 93%
    22:00 +22°C° 0,1 mm 6 m/S 763 mmHg 93%
    23:00 +21°C° 0 mm 5 m/S 762 mmHg 93%

    Morgen, 27 Juni, Dienstag

    Zeit Temperatur Niederschläge Wind Luftdruck Luftfeuchtigkeit
    00:00 +21°C° 0 mm 5 m/S 762 mmHg 93%
    01:00 +21°C° 0 mm 5 m/S 762 mmHg 93%
    02:00 +21°C° 0 mm 5 m/S 762 mmHg 92%
    03:00 +21°C° 0 mm 5 m/S 762 mmHg 92%
    04:00 +21°C° 0 mm 5 m/S 762 mmHg 92%
    05:00 +21°C° 0 mm 5 m/S 762 mmHg 91%
    06:00 +21°C° 0 mm 5 m/S 762 mmHg 90%
    07:00 +21°C° 0 mm 5 m/S 762 mmHg 89%
    08:00 +22°C° 0 mm 5 m/S 762 mmHg 84%
    09:00 +23°C° 0 mm 5 m/S 763 mmHg 79%
    10:00 +25°C° 0 mm 5 m/S 763 mmHg 74%
    11:00 +26°C° 0 mm 5 m/S 762 mmHg 71%
    12:00 +27°C° 0 mm 5 m/S 762 mmHg 67%
    13:00 +28°C° 0 mm 5 m/S 761 mmHg 64%
    14:00 +27°C° 0 mm 5 m/S 761 mmHg 67%
    15:00 +27°C° 0 mm 5 m/S 761 mmHg 69%
    16:00 +26°C° 0 mm 5 m/S 761 mmHg 72%
    17:00 +25°C° 0 mm 5 m/S 761 mmHg 78%
    18:00 +23°C° 0 mm 5 m/S 761 mmHg 84%
    19:00 +22°C° 0 mm 5 m/S 762 mmHg 90%
    20:00 +22°C° 0 mm 4 m/S 762 mmHg 92%
    21:00 +21°C° 0 mm 4 m/S 763 mmHg 93%
    22:00 +21°C° 0 mm 4 m/S 763 mmHg 95%
    23:00 +21°C° 0,1 mm 4 m/S 763 mmHg 95%

    übermorgen, 28 Juni, Mittwoch

    Zeit Temperatur Niederschläge Wind Luftdruck Luftfeuchtigkeit
    00:00 +21°C° 0,1 mm 4 m/S 762 mmHg 96%
    01:00 +22°C° 0,1 mm 4 m/S 762 mmHg 96%
    02:00 +22°C° 0 mm 4 m/S 762 mmHg 96%
    03:00 +22°C° 0 mm 4 m/S 761 mmHg 97%
    04:00 +22°C° 0 mm 4 m/S 761 mmHg 97%
    05:00 +22°C° 0 mm 4 m/S 761 mmHg 96%
    06:00 +22°C° 0 mm 4 m/S 762 mmHg 96%
    07:00 +22°C° 0 mm 4 m/S 762 mmHg 96%
    08:00 +23°C° 0 mm 4 m/S 762 mmHg 91%
    09:00 +25°C° 0 mm 4 m/S 763 mmHg 86%
    10:00 +26°C° 0 mm 4 m/S 763 mmHg 80%
    11:00 +27°C° 0,1 mm 4 m/S 762 mmHg 76%
    12:00 +28°C° 0,1 mm 4 m/S 762 mmHg 72%
    13:00 +28°C° 0,1 mm 4 m/S 761 mmHg 68%
    14:00 +28°C° 0 mm 4 m/S 761 mmHg 70%
    15:00 +28°C° 0 mm 4 m/S 761 mmHg 72%
    16:00 +27°C° 0 mm 4 m/S 760 mmHg 73%
    17:00 +26°C° 0,1 mm 4 m/S 761 mmHg 80%
    18:00 +25°C° 0,1 mm 4 m/S 761 mmHg 87%
    19:00 +23°C° 0,1 mm 4 m/S 762 mmHg 94%
    20:00 +22°C° 0,1 mm 4 m/S 762 mmHg 95%
    21:00 +22°C° 0,1 mm 4 m/S 763 mmHg 95%
    22:00 +22°C° 0,1 mm 4 m/S 763 mmHg 96%
    23:00 +22°C° 0,1 mm 4 m/S 763 mmHg 96%

    29 Juni, Donnerstag

    Zeit Temperatur Niederschläge Wind Luftdruck Luftfeuchtigkeit
    00:00 +22°C° 0,1 mm 4 m/S 762 mmHg 96%
    01:00 +22°C° 0,1 mm 4 m/S 762 mmHg 96%
    02:00 +22°C° 0 mm 4 m/S 762 mmHg 96%
    03:00 +22°C° 0 mm 4 m/S 761 mmHg 96%
    04:00 +22°C° 0 mm 4 m/S 761 mmHg 97%
    05:00 +22°C° 0,1 mm 4 m/S 761 mmHg 97%
    06:00 +22°C° 0,1 mm 4 m/S 761 mmHg 97%
    07:00 +22°C° 0,1 mm 4 m/S 762 mmHg 98%
    08:00 +23°C° 0,2 mm 4 m/S 762 mmHg 92%
    09:00 +25°C° 0,2 mm 4 m/S 762 mmHg 86%
    10:00 +27°C° 0,2 mm 4 m/S 763 mmHg 81%
    11:00 +27°C° 0,1 mm 4 m/S 762 mmHg 79%
    12:00 +27°C° 0,1 mm 4 m/S 762 mmHg 78%
    13:00 +28°C° 0,1 mm 4 m/S 761 mmHg 76%
    14:00 +27°C° 0,1 mm 4 m/S 761 mmHg 77%
    15:00 +27°C° 0,1 mm 4 m/S 760 mmHg 78%
    16:00 +27°C° 0,1 mm 4 m/S 760 mmHg 79%
    17:00 +26°C° 0,1 mm 4 m/S 761 mmHg 84%
    18:00 +25°C° 0,1 mm 4 m/S 761 mmHg 90%
    19:00 +23°C° 0,1 mm 4 m/S 762 mmHg 95%
    20:00 +23°C° 0,2 mm 4 m/S 762 mmHg 96%
    21:00 +23°C° 0,2 mm 4 m/S 762 mmHg 96%
    22:00 +23°C° 0,2 mm 4 m/S 762 mmHg 97%
    23:00 +23°C° 0,5 mm 4 m/S 762 mmHg 97%

    30 Juni, Freitag

    Zeit Temperatur Niederschläge Wind Luftdruck Luftfeuchtigkeit
    00:00 +23°C° 0,5 mm 4 m/S 762 mmHg 97%
    01:00 +23°C° 0,5 mm 4 m/S 761 mmHg 97%
    02:00 +23°C° 0,5 mm 4 m/S 761 mmHg 97%
    03:00 +23°C° 0,5 mm 4 m/S 761 mmHg 97%
    04:00 +24°C° 0,5 mm 3 m/S 761 mmHg 97%
    05:00 +23°C° 0,5 mm 4 m/S 761 mmHg 97%
    06:00 +23°C° 0,5 mm 4 m/S 761 mmHg 97%
    07:00 +23°C° 0,5 mm 4 m/S 761 mmHg 97%
    08:00 +23°C° 0,2 mm 4 m/S 762 mmHg 97%
    09:00 +23°C° 0,2 mm 4 m/S 762 mmHg 96%
    10:00 +23°C° 0,2 mm 4 m/S 762 mmHg 96%
    11:00 +25°C° 0,2 mm 4 m/S 762 mmHg 93%
    12:00 +25°C° 0,2 mm 5 m/S 761 mmHg 90%
    13:00 +26°C° 0,2 mm 5 m/S 761 mmHg 88%
    14:00 +26°C° 0,1 mm 5 m/S 761 mmHg 87%
    15:00 +26°C° 0,1 mm 5 m/S 761 mmHg 86%
    16:00 +26°C° 0,1 mm 5 m/S 760 mmHg 85%
    17:00 +24°C° 0,1 mm 6 m/S 761 mmHg 88%
    18:00 +23°C° 0,1 mm 6 m/S 761 mmHg 91%
    19:00 +23°C° 0,1 mm 6 m/S 762 mmHg 94%
    20:00 +23°C° 0,2 mm 6 m/S 762 mmHg 94%
    21:00 +23°C° 0,2 mm 6 m/S 762 mmHg 94%
    22:00 +22°C° 0,2 mm 6 m/S 763 mmHg 94%
    23:00 +23°C° 0,5 mm 5 m/S 762 mmHg 94%

    1 Juli, Samstag

    Zeit Temperatur Niederschläge Wind Luftdruck Luftfeuchtigkeit
    00:00 +23°C° 0,5 mm 5 m/S 762 mmHg 94%
    01:00 +23°C° 0,5 mm 5 m/S 762 mmHg 94%
    02:00 +23°C° 0,6 mm 5 m/S 761 mmHg 94%
    03:00 +23°C° 0,6 mm 5 m/S 761 mmHg 94%
    04:00 +23°C° 0,6 mm 5 m/S 761 mmHg 94%
    05:00 +23°C° 0,4 mm 5 m/S 762 mmHg 94%
    06:00 +23°C° 0,4 mm 5 m/S 762 mmHg 94%
    07:00 +23°C° 0,4 mm 5 m/S 762 mmHg 94%
    08:00 +23°C° 0,2 mm 6 m/S 763 mmHg 92%
    09:00 +23°C° 0,2 mm 6 m/S 763 mmHg 91%
    10:00 +23°C° 0,2 mm 6 m/S 763 mmHg 90%
    11:00 +24°C° 0,1 mm 6 m/S 763 mmHg 86%
    12:00 +26°C° 0,1 mm 6 m/S 762 mmHg 81%
    13:00 +27°C° 0,1 mm 6 m/S 762 mmHg 77%
    14:00 +26°C° 0,1 mm 6 m/S 762 mmHg 80%
    15:00 +26°C° 0,1 mm 6 m/S 761 mmHg 83%
    16:00 +24°C° 0,1 mm 6 m/S 761 mmHg 86%
    17:00 +24°C° 0,2 mm 6 m/S 762 mmHg 88%
    18:00 +23°C° 0,2 mm 6 m/S 762 mmHg 90%
    19:00 +23°C° 0,2 mm 5 m/S 763 mmHg 93%
    20:00 +23°C° 0,2 mm 5 m/S 763 mmHg 93%
    21:00 +23°C° 0,2 mm 5 m/S 763 mmHg 94%
    22:00 +22°C° 0,2 mm 5 m/S 763 mmHg 95%
    23:00 +22°C° 0,2 mm 5 m/S 763 mmHg 95%
    Mehr zeigen